Dewpoint
38 34 31 30 30 30 32 30 30 30 32 30 29 28 29 30 30 30 30 31 32 34 36 38 40 41 42 42 43 44 46 50 55 58 60 61 57 55 52 48 45 40 38 33
34 31 30 32 32 31 31 30 28 28 29 29 27 27 27 28 28 28 27 27 27 28 31 33 37 39 41 42 42 44 47 53 56 58 57 58 56 52 47 43 42 38 34 29
30 30 32 32 31 30 29 29 29 28 28 27 26 24 21 20 21 22 25 26 27 27 27 28 31 36 39 41 43 45 49 55 57 56 56 52 45 40 37 37 37 33 29 25
32 32 31 31 30 30 26 28 29 29 27 24 26 20 20 20 20 20 21 22 24 26 28 28 29 31 35 39 44 47 51 55 56 55 51 49 49 43 41 36 34 31 28 27
30 32 33 31 30 30 29 29 28 28 26 26 25 25 19 22 20 21 21 21 22 23 24 26 29 30 33 39 46 50 52 54 53 52 52 52 50 46 38 33 28 24 23 23
30 34 33 31 31 31 31 30 30 28 28 23 23 25 19 18 19 19 20 19 20 22 26 28 30 33 34 40 49 51 52 52 51 52 51 53 49 38 32 25 25 24 23 22
30 31 33 33 31 32 32 31 21 22 22 17 18 21 22 19 21 21 20 21 22 27 25 25 30 36 39 40 50 51 51 50 50 51 51 51 44 40 31 25 24 21 20 20
26 25 31 35 31 27 30 28 20 13 12 13 19 18 16 20 21 21 23 28 35 35 36 29 29 34 39 44 49 50 50 48 48 50 50 45 40 36 26 22 21 19 20 19
28 26 32 33 33 31 31 29 29 26 24 21 18 16 17 18 20 21 27 34 33 37 38 35 33 36 40 45 49 50 49 47 47 47 41 33 29 26 24 22 21 19 18 16
30 26 28 30 34 33 32 31 26 27 16 12 13 13 14 16 20 30 30 32 37 39 39 38 35 37 42 46 49 50 48 46 46 43 38 30 26 25 23 20 19 18 15 14
30 26 26 31 30 27 30 29 31 27 25 17 14 12 14 14 17 26 31 34 39 40 41 40 37 41 45 48 49 48 46 44 41 37 32 27 25 21 21 19 17 16 14 14
29 28 23 25 25 28 23 24 26 24 22 25 22 20 19 26 31 33 29 32 38 41 41 42 42 44 47 48 48 46 43 40 36 30 28 22 19 18 17 15 15 14 13 12
30 29 23 23 28 28 27 27 26 31 29 25 22 18 19 23 28 26 28 32 36 41 41 41 42 43 45 46 45 42 39 33 28 25 20 17 17 16 15 14 13 12 12 12
32 29 26 19 22 27 29 30 32 31 25 23 24 23 21 21 21 21 21 26 34 41 41 41 41 42 43 44 41 37 30 27 22 18 17 16 16 15 14 13 12 12 12 11
32 28 29 30 29 30 30 30 31 30 30 26 23 22 23 23 24 23 23 32 34 40 41 40 40 40 40 38 32 27 22 19 17 17 16 16 15 15 14 13 12 11 12 13
34 29 31 29 30 30 31 34 34 33 32 32 31 28 28 28 28 27 33 31 33 40 40 40 38 37 35 30 24 20 17 16 20 19 16 16 15 14 14 12 12 13 14 13
32 32 30 26 29 30 30 34 35 34 34 32 29 29 29 29 28 31 33 38 39 40 40 41 37 35 31 25 20 17 19 20 20 17 16 15 14 14 13 11 12 13 13 14
33 33 31 27 29 25 35 37 38 37 36 36 33 32 31 31 35 39 41 42 41 41 41 39 36 30 26 23 20 20 19 18 17 16 15 14 13 12 10 10 12 12 13 13
35 33 30 26 28 28 32 36 37 34 35 35 36 36 36 37 38 38 39 39 40 41 41 36 32 23 22 21 17 17 16 16 16 15 14 13 11 9 9 10 11 12 13 12
36 35 31 27 26 23 30 35 39 37 31 31 34 35 34 33 37 37 37 41 41 39 36 32 28 25 22 19 18 17 16 15 15 14 12 11 9 8 9 12 13 12 12 10
32 32 29 29 28 30 31 32 39 26 27 33 33 36 34 35 36 36 37 37 38 34 30 27 24 22 18 17 17 16 15 15 14 12 10 9 8 9 12 13 12 12 11 10
30 29 30 31 29 26 32 35 32 32 35 34 34 37 40 35 36 33 34 33 34 31 27 24 21 17 16 16 16 15 14 13 11 10 8 8 10 12 14 15 14 12 11 10
32 31 29 31 29 32 33 34 34 35 35 34 35 36 38 35 34 33 30 30 28 27 25 23 20 18 17 16 15 13 12 11 9 8 10 11 12 13 15 15 15 12 11 9
34 36 34 34 34 35 35 35 35 35 35 35 36 36 36 33 30 29 28 26 24 23 21 20 18 17 15 15 13 11 10 8 9 9 10 11 12 12 13 13 14 12 10 9
35 36 36 35 35 35 34 35 35 35 34 32 33 34 33 30 29 28 25 24 22 20 19 18 17 15 13 12 11 9 8 9 9 10 11 14 13 12 13 13 13 13 13 16
36 35 33 30 35 35 33 35 35 35 33 31 30 29 29 29 27 25 23 22 20 19 17 16 15 13 11 10 8 8 9 11 11 11 11 12 12 13 12 12 11 16 16 17
Wind_Speed
8 9 15 17 16 14 5 8 11 11 11 21 27 32 29 28 30 31 30 29 29 28 24 21 21 17 16 17 16 16 15 15 17 18 21 20 19 15 12 12 16 15 16 16
7 15 14 9 11 14 16 19 21 19 16 15 25 44 33 35 39 34 32 32 32 32 29 27 24 24 20 18 18 17 17 17 19 17 18 16 15 10 11 12 14 15 15 13
10 2 5 16 15 15 18 19 18 21 20 22 27 37 21 10 12 18 27 31 31 31 30 29 29 28 23 21 18 18 18 18 19 19 16 15 14 12 9 13 12 12 15 9
10 12 7 11 14 14 18 9 15 16 13 11 3 21 22 18 17 14 15 17 22 23 27 31 29 28 28 24 20 18 19 21 21 23 21 24 19 19 16 17 12 15 13 14
4 6 12 15 17 12 9 7 8 10 15 18 21 11 16 3 14 13 18 17 17 17 22 26 27 28 27 24 21 20 20 21 21 24 22 23 20 17 19 16 19 14 13 14
11 2 6 9 11 15 1 8 12 14 12 15 24 22 32 21 13 10 8 13 15 15 16 19 23 22 24 22 19 20 23 23 23 23 23 25 27 25 23 21 18 15 12 13
6 19 10 8 9 8 14 4 5 6 10 13 3 15 32 9 7 15 27 18 17 19 22 20 19 20 20 22 21 22 24 24 24 24 24 24 24 26 29 29 22 21 17 15
4 4 15 13 19 6 17 17 10 7 9 11 1 16 12 10 12 15 9 11 13 17 17 19 19 19 21 23 24 24 25 23 24 24 24 21 21 20 21 19 20 16 16 14
6 5 3 13 9 14 6 16 17 21 30 23 21 30 33 33 29 18 11 6 12 14 16 15 17 17 19 22 26 26 25 23 24 24 23 22 21 22 21 20 18 14 15 15
2 6 8 3 9 13 13 1 6 11 8 15 20 22 21 12 5 11 3 7 15 16 17 14 12 15 17 20 23 22 22 23 24 24 23 22 22 21 20 19 17 18 16 15
9 6 3 4 16 18 13 13 10 12 13 13 25 20 3 13 15 7 3 7 11 15 17 15 9 9 13 16 20 22 22 24 24 23 23 25 23 22 19 20 17 17 17 15
14 5 11 18 12 15 18 20 26 19 17 16 29 38 8 3 9 4 8 9 11 12 14 13 7 6 12 17 20 22 22 23 22 22 24 24 25 22 22 20 18 17 16 14
15 8 6 5 3 7 12 21 32 28 21 28 19 25 4 10 16 10 7 12 13 12 12 10 4 6 12 17 19 21 22 22 22 24 25 25 24 23 22 20 18 16 15 14
14 6 11 16 18 10 17 25 19 27 24 35 35 47 31 20 20 19 22 14 11 8 9 7 2 6 12 17 20 22 21 21 23 24 25 25 24 23 21 19 17 15 13 13
11 8 14 25 31 30 33 37 36 27 35 27 42 31 33 23 23 24 21 10 11 7 7 2 4 8 13 17 19 21 21 20 22 25 24 24 22 21 20 18 16 14 12 10
9 7 9 23 28 27 29 28 28 25 27 28 36 39 34 29 26 19 15 14 16 9 9 5 7 11 16 19 20 21 23 21 22 21 23 23 22 21 19 17 15 13 11 9
6 4 5 10 19 33 8 7 13 10 11 13 23 28 18 16 10 13 14 16 13 13 12 10 12 15 16 17 21 23 23 22 21 21 21 21 21 20 17 16 14 12 9 8
6 6 3 12 21 6 4 16 15 13 17 16 24 23 20 16 10 14 15 17 21 17 8 13 15 17 17 19 20 24 23 22 22 20 21 19 19 19 16 14 12 10 8 6
19 13 6 6 10 17 9 10 7 3 8 16 11 16 13 11 10 17 7 9 8 5 13 16 19 20 20 21 22 24 23 23 22 21 20 19 18 18 15 13 10 8 6 4
15 19 14 6 6 5 2 7 6 2 6 14 11 11 11 3 6 6 11 10 12 14 17 21 21 22 22 21 23 24 23 21 20 19 19 17 16 15 14 11 9 6 4 3
5 5 17 14 8 11 6 7 1 7 10 17 11 8 4 1 4 5 8 11 13 16 20 20 20 20 21 21 23 23 21 20 19 19 18 16 14 14 12 10 7 5 3 1
9 8 7 7 7 6 2 3 3 4 10 14 7 3 6 9 7 7 10 11 14 18 18 17 20 19 18 20 23 22 20 19 20 19 18 16 14 11 10 9 6 4 2 2
6 7 2 7 5 2 3 10 7 5 9 7 6 2 12 12 6 8 11 13 14 15 17 17 21 20 18 18 19 23 20 20 19 18 17 15 13 11 8 6 5 2 2 3
6 6 5 4 4 6 4 2 0 3 3 3 3 3 11 12 13 13 12 14 14 15 17 20 22 21 19 17 18 21 18 19 19 18 15 13 11 9 6 4 3 2 3 4
2 6 5 8 14 9 3 2 1 3 5 5 6 5 10 16 15 16 15 14 15 17 18 19 21 21 21 20 20 17 18 18 18 16 14 11 9 7 5 3 1 2 2 4
9 7 5 7 3 3 4 3 4 4 6 8 13 13 12 15 18 18 17 16 17 19 20 22 21 23 21 20 19 16 15 16 17 15 11 9 7 5 3 1 1 2 3 5
Wind_Direction
194 205 211 220 225 245 280 264 259 263 277 294 277 275 273 273 268 264 260 259 258 256 254 250 253 248 238 235 232 226 211 202 191 190 190 190 181 173 162 134 146 138 141 133
185 231 235 225 225 239 252 263 269 282 278 281 291 285 282 271 262 258 257 257 253 254 250 245 242 244 237 232 225 218 210 197 193 190 185 185 170 149 140 120 145 145 132 143
201 163 224 211 223 237 247 256 267 268 286 289 289 286 271 267 258 256 249 253 255 252 249 244 236 235 234 230 221 214 206 193 187 184 163 146 126 118 118 129 126 127 123 132
232 228 184 191 223 232 261 259 257 273 284 276 65 290 285 278 276 257 255 245 247 247 245 247 244 238 229 227 218 207 199 189 183 170 174 176 168 158 162 154 138 132 131 135
178 186 204 224 232 222 240 242 252 267 271 285 259 252 278 185 273 264 266 268 265 254 247 245 241 236 234 222 210 198 191 187 181 181 180 176 161 148 146 146 140 136 142 146
248 194 202 221 221 215 299 235 249 261 256 255 248 212 275 269 272 254 234 293 295 282 260 255 246 237 229 223 203 192 185 185 181 180 179 174 161 149 152 152 141 140 146 146
240 239 220 200 222 215 219 182 260 233 211 250 284 216 246 258 226 260 289 308 307 299 279 269 253 235 219 210 199 190 185 183 180 177 175 171 163 162 163 157 152 153 154 156
227 253 202 189 215 208 207 212 223 260 248 295 8 248 248 256 258 268 287 305 316 323 298 260 250 235 219 203 197 189 184 178 176 173 169 163 157 161 157 151 147 152 153 150
191 252 179 194 204 206 177 217 235 273 270 273 253 264 278 268 259 254 255 300 317 328 328 285 252 230 220 202 190 188 182 176 172 168 158 150 139 147 141 138 141 141 136 140
201 261 207 214 216 230 212 179 195 201 256 252 255 258 259 262 271 175 261 341 338 336 337 322 262 234 205 199 185 179 177 172 165 159 155 148 141 133 136 134 135 139 140 138
192 212 167 172 209 206 194 224 222 263 243 258 269 263 312 275 250 226 293 351 350 340 338 344 291 228 191 180 172 167 166 161 158 156 148 143 134 132 135 135 137 141 137 140
195 217 243 235 245 228 240 238 224 233 244 236 249 262 239 223 175 222 310 338 350 351 347 4 319 208 174 166 164 159 156 154 153 148 140 131 129 134 137 137 141 140 136 137
172 218 280 257 215 216 238 239 237 239 258 248 248 262 96 215 237 261 292 329 333 340 356 13 316 196 174 162 159 153 150 145 144 139 128 128 129 137 139 138 138 135 135 133
185 225 234 259 279 299 268 268 249 234 246 255 242 257 258 262 267 262 274 306 315 339 356 9 278 177 169 159 153 144 137 139 135 128 128 129 138 138 135 133 132 133 134 132
199 255 250 261 273 279 273 275 278 253 240 248 262 254 267 274 276 282 286 283 313 315 347 332 217 171 158 148 138 136 130 130 128 126 127 132 132 130 127 129 130 129 128 125
211 267 302 288 282 274 280 277 277 267 253 250 257 265 272 281 274 271 262 282 292 277 327 217 188 169 159 150 140 133 126 126 124 121 126 129 127 125 126 129 130 129 127 126
215 233 297 283 315 311 290 315 297 275 255 257 244 253 275 280 265 295 286 292 282 289 293 191 181 165 153 143 136 129 124 124 121 127 127 125 127 124 128 131 131 132 133 136
198 183 227 291 309 306 286 320 302 295 278 280 254 264 274 280 296 287 280 272 277 272 252 169 162 145 137 132 127 122 125 124 127 125 125 127 126 126 130 132 132 133 136 132
221 240 279 276 303 276 301 326 306 314 322 18 276 269 266 276 286 297 351 321 296 148 145 151 143 132 131 129 128 125 127 129 127 130 129 129 129 132 134 135 137 134 134 127
221 223 228 272 299 297 197 290 281 227 348 21 357 292 279 301 354 25 19 36 92 113 125 130 131 132 131 133 134 131 130 129 127 129 126 128 133 134 133 134 134 126 120 115
158 180 216 236 257 277 281 319 275 5 321 345 351 348 184 132 21 46 51 70 91 111 117 123 129 129 131 135 133 126 127 124 125 124 124 125 125 124 127 127 126 126 119 127
192 186 198 201 229 282 172 294 330 328 309 315 336 9 118 108 100 77 72 78 95 102 110 116 118 118 126 130 126 124 120 126 124 123 120 119 120 120 125 126 122 115 90 6
229 217 250 226 251 325 243 274 294 303 289 297 297 293 156 144 124 105 100 98 103 112 118 122 121 121 124 128 128 122 129 127 123 121 120 121 121 120 120 123 123 99 29 346
228 205 243 296 231 270 270 270 344 345 338 336 264 202 152 141 134 120 115 114 113 117 119 124 122 120 118 119 115 117 124 127 126 125 126 126 122 118 110 101 82 35 351 330
285 168 233 259 287 299 58 333 58 62 68 71 81 136 138 133 131 129 124 117 117 117 118 121 120 117 115 118 118 121 129 132 127 125 125 121 117 110 106 89 62 352 345 323
197 210 217 274 336 295 5 59 92 108 90 100 109 112 118 131 132 129 121 123 124 120 118 112 113 117 121 121 121 125 132 135 131 123 119 116 114 110 102 70 352 194 305 312